Location: Peebles
(55.6412°N, 3.1714°W)
Time: 13:34:51
(UTC+00:00)

RS-15 - Pass Details

Date: 01 December 2023
Orbit: 1893 x 2151 km, 64.8° (Epoch: 02 March)

Event Time Altitude Azimuth Distance (km) Brightness Sun altitude
Exits shadow 07:04:20 - 313° (NW) 4,631 9.4 -9.5°
Reaches altitude 10° 07:04:58 10° 312° (NW) 4,462 9.3 -9.4°
Maximum altitude 07:14:54 37° 251° (WSW) 2,748 8.5 -8.1°
Drops below altitude 10° 07:24:30 10° 189° (S) 4,293 10.1 -6.9°
Sets 07:28:02 0° 182° (S) 5,273 10.7 -6.5°
